,,,PA_Meas_PMT16A,,PR_Meas_QMR101_102,,RH_Meas_QMH101,,SR_Meas_QMS101,,TA_Meas_QMH101,,GenWind,,GenWind,
date,time,status,PA,status,PR,status,RH,status,SR,status,TA,status,DirAvg,status,SpdAvg,
2010-01-16, 00:00:04,VALID,1005.05,VALID,0,VALID,94.9643,VALID,0.100563,VALID,23.4664,VALID,330,VALID,0,
2010-01-16, 00:01:04,VALID,1005.1,VALID,0,VALID,94.9567,VALID,0.100563,VALID,23.4877,VALID,342,VALID,0.7,
2010-01-16, 00:02:04,VALID,1005.1,VALID,0,VALID,94.949,VALID,0,VALID,23.4859,VALID,305,VALID,0.242969,
2010-01-16, 00:03:04,VALID,1005.08,VALID,0,VALID,94.949,VALID,0.100563,VALID,23.5266,VALID,323,VALID,0.253906,
2010-01-16, 00:04:04,VALID,1005.05,VALID,0,VALID,94.9872,VALID,0,VALID,23.4682,VALID,1,VALID,0.707031,
2010-01-16, 00:05:04,VALID,1005.05,VALID,0,VALID,94.9719,VALID,0,VALID,23.4487,VALID,320,VALID,0.729688,
2010-01-16, 00:06:04,VALID,1005.08,VALID,0,VALID,94.9643,VALID,0,VALID,23.4682,VALID,333,VALID,0.00859375,
2010-01-16, 00:07:04,VALID,1005.02,VALID,0,VALID,94.9719,VALID,0,VALID,23.447,VALID,360,VALID,0.569141,
2010-01-16, 00:08:04,VALID,1005.03,VALID,0.5,VALID,95.0024,VALID,0,VALID,23.4682,VALID,345,VALID,0.878906,
2010-01-16, 00:09:04,VALID,1005.03,VALID,0,VALID,95.0024,VALID,0.100563,VALID,23.47,VALID,280,VALID,1.02266,
2010-01-16, 00:10:04,VALID,1005.01,VALID,0,VALID,94.9872,VALID,0,VALID,23.4682,VALID,350,VALID,0.492969,
2010-01-16, 00:11:04,VALID,1005,VALID,0,VALID,94.9948,VALID,0.100563,VALID,23.4877,VALID,323,VALID,0.386328,
2010-01-16, 00:12:04,VALID,1005.01,VALID,0,VALID,94.9948,VALID,0,VALID,23.4682,VALID,19,VALID,0.398047,
2010-01-16, 00:13:04,VALID,1005,VALID,0,VALID,94.9948,VALID,0,VALID,23.4275,VALID,264,VALID,0.579297,
2010-01-16, 00:14:04,VALID,1005.02,VALID,0,VALID,95.0101,VALID,0,VALID,23.4487,VALID,334,VALID,0.994141,
2010-01-16, 00:15:04,VALID,1004.98,VALID,0,VALID,95.0177,VALID,0,VALID,23.4505,VALID,341,VALID,0.392578,
2010-01-16, 00:16:04,VALID,1005.01,VALID,0,VALID,95.0101,VALID,0,VALID,23.4293,VALID,341,VALID,0.296484,
2010-01-16, 00:17:04,VALID,1004.99,VALID,0,VALID,95.0101,VALID,0,VALID,23.4311,VALID,346,VALID,0.2125,
2010-01-16, 00:18:04,VALID,1004.96,VALID,0,VALID,95.0101,VALID,0,VALID,23.4505,VALID,330,VALID,0.796484,
2010-01-16, 00:19:04,VALID,1004.95,VALID,0,VALID,95.0101,VALID,0,VALID,23.4505,VALID,338,VALID,0.633594,
2010-01-16, 00:20:04,VALID,1004.9,VALID,0,VALID,95.0406,VALID,0,VALID,23.4311,VALID,21,VALID,0.351953,
2010-01-16, 00:21:04,VALID,1004.89,VALID,0,VALID,95.0482,VALID,0,VALID,23.3904,VALID,351,VALID,0.723047,
2010-01-16, 00:22:04,VALID,1004.87,VALID,0.5,VALID,95.033,VALID,0,VALID,23.4311,VALID,339,VALID,0.9875,
2010-01-16, 00:23:04,VALID,1004.83,VALID,0,VALID,95.0253,VALID,0,VALID,23.4116,VALID,350,VALID,1.16602,
2010-01-16, 00:24:04,VALID,1004.82,VALID,0,VALID,95.0482,VALID,0,VALID,23.4116,VALID,352,VALID,0.534375,
2010-01-16, 00:25:04,VALID,1004.84,VALID,0,VALID,95.0558,VALID,0,VALID,23.3921,VALID,276,VALID,0.301172,
2010-01-16, 00:26:04,VALID,1004.82,VALID,0,VALID,95.033,VALID,0,VALID,23.4311,VALID,298,VALID,0.758594,
2010-01-16, 00:27:04,VALID,1004.88,VALID,0,VALID,95.033,VALID,0,VALID,23.4311,VALID,353,VALID,0.507813,
2010-01-16, 00:28:04,VALID,1004.87,VALID,0,VALID,95.0711,VALID,0,VALID,23.4311,VALID,290,VALID,1.23672,
2010-01-16, 00:29:04,VALID,1004.9,VALID,0,VALID,95.0482,VALID,0.100563,VALID,23.4098,VALID,299,VALID,0.690625,
2010-01-16, 00:30:04,VALID,1004.91,VALID,0,VALID,95.0482,VALID,0,VALID,23.4098,VALID,267,VALID,0.778125,
2010-01-16, 00:31:04,VALID,1004.87,VALID,0,VALID,95.0635,VALID,0,VALID,23.3904,VALID,325,VALID,0.75625,
2010-01-16, 00:32:04,VALID,1004.84,VALID,0,VALID,95.0711,VALID,0,VALID,23.3709,VALID,283,VALID,1.65898,
2010-01-16, 00:33:04,VALID,1004.83,VALID,0,VALID,95.0787,VALID,0,VALID,23.3514,VALID,292,VALID,0.995703,
2010-01-16, 00:34:04,VALID,1004.86,VALID,0,VALID,95.0787,VALID,0,VALID,23.3709,VALID,303,VALID,1.28594,
2010-01-16, 00:35:04,VALID,1004.83,VALID,0,VALID,95.0558,VALID,0,VALID,23.3514,VALID,285,VALID,0.672266,
2010-01-16, 00:36:04,VALID,1004.81,VALID,0,VALID,95.0864,VALID,0,VALID,23.3514,VALID,299,VALID,0.424219,
2010-01-16, 00:37:04,VALID,1004.78,VALID,0,VALID,95.1016,VALID,0,VALID,23.3532,VALID,291,VALID,0.607031,
2010-01-16, 00:38:04,VALID,1004.77,VALID,0,VALID,95.0864,VALID,0,VALID,23.3532,VALID,298,VALID,0.733984,
2010-01-16, 00:39:04,VALID,1004.76,VALID,0,VALID,95.094,VALID,0,VALID,23.3302,VALID,354,VALID,0.307031,
2010-01-16, 00:40:04,VALID,1004.78,VALID,0.5,VALID,95.094,VALID,0,VALID,23.332,VALID,294,VALID,0.516797,
2010-01-16, 00:41:04,VALID,1004.82,VALID,0,VALID,95.0787,VALID,0,VALID,23.332,VALID,291,VALID,0.370313,
2010-01-16, 00:42:04,VALID,1004.85,VALID,0,VALID,95.0864,VALID,0,VALID,23.3302,VALID,335,VALID,0.139453,
2010-01-16, 00:43:04,VALID,1004.83,VALID,0,VALID,95.094,VALID,0.100563,VALID,23.3514,VALID,354,VALID,0.25,
2010-01-16, 00:44:04,VALID,1004.91,VALID,0,VALID,95.1093,VALID,0,VALID,23.332,VALID,290,VALID,0.635938,
2010-01-16, 00:45:04,VALID,1004.92,VALID,0,VALID,95.1016,VALID,0,VALID,23.3337,VALID,304,VALID,0.812891,
2010-01-16, 00:46:04,VALID,1004.95,VALID,0,VALID,95.094,VALID,0,VALID,23.3125,VALID,277,VALID,0.348437,
2010-01-16, 00:47:04,VALID,1004.93,VALID,0,VALID,95.0787,VALID,0,VALID,23.3125,VALID,336,VALID,0.573828,
2010-01-16, 00:48:04,VALID,1004.99,VALID,0,VALID,95.1093,VALID,0,VALID,23.2931,VALID,352,VALID,0.607813,
2010-01-16, 00:49:04,VALID,1004.94,VALID,0,VALID,95.1093,VALID,0,VALID,23.2931,VALID,354,VALID,0.223828,
2010-01-16, 00:50:04,VALID,1004.96,VALID,0,VALID,95.1245,VALID,0,VALID,23.2931,VALID,359,VALID,0.627734,
2010-01-16, 00:51:04,VALID,1004.96,VALID,0,VALID,95.1245,VALID,0,VALID,23.2541,VALID,346,VALID,0.539844,
2010-01-16, 00:52:04,VALID,1004.96,VALID,0,VALID,95.1245,VALID,0,VALID,23.2541,VALID,11,VALID,0.208984,
2010-01-16, 00:53:04,VALID,1004.98,VALID,0,VALID,95.1321,VALID,0,VALID,23.2736,VALID,353,VALID,0.5125,
2010-01-16, 00:54:04,VALID,1004.95,VALID,0,VALID,95.1093,VALID,0,VALID,23.2736,VALID,352,VALID,0.164453,
2010-01-16, 00:55:04,VALID,1004.96,VALID,0,VALID,95.1474,VALID,0,VALID,23.2948,VALID,16,VALID,0.433203,
2010-01-16, 00:56:04,VALID,1004.94,VALID,0,VALID,95.1474,VALID,0,VALID,23.2541,VALID,343,VALID,0.103125,
2010-01-16, 00:57:04,VALID,1004.93,VALID,0,VALID,95.1321,VALID,0,VALID,23.2754,VALID,12,VALID,0.346094,
2010-01-16, 00:58:04,VALID,1004.91,VALID,0,VALID,95.1474,VALID,0,VALID,23.2329,VALID,10,VALID,0.482812,
2010-01-16, 00:59:04,VALID,1004.92,VALID,0,VALID,95.1474,VALID,0.100563,VALID,23.194,VALID,347,VALID,0.890625,
2010-01-16, 01:00:04,VALID,1004.95,VALID,0,VALID,95.1703,VALID,0,VALID,23.1551,VALID,353,VALID,1.24961,
2010-01-16, 01:01:04,VALID,1004.89,VALID,0,VALID,95.1703,VALID,0,VALID,23.1763,VALID,358,VALID,0.749219,
2010-01-16, 01:02:04,VALID,1004.89,VALID,0.5,VALID,95.1627,VALID,0,VALID,23.1957,VALID,352,VALID,0.342187,
2010-01-16, 01:03:04,VALID,1004.86,VALID,0,VALID,95.1703,VALID,0,VALID,23.1957,VALID,337,VALID,0.439453,
2010-01-16, 01:04:04,VALID,1004.85,VALID,0,VALID,95.1627,VALID,0,VALID,23.1763,VALID,351,VALID,0.860937,
2010-01-16, 01:05:04,VALID,1004.85,VALID,0,VALID,95.1779,VALID,0,VALID,23.1763,VALID,356,VALID,0.813672,
2010-01-16, 01:06:04,VALID,1004.84,VALID,0,VALID,95.1627,VALID,0,VALID,23.1568,VALID,318,VALID,0.449219,
2010-01-16, 01:07:04,VALID,1004.82,VALID,0,VALID,95.1855,VALID,0,VALID,23.1975,VALID,323,VALID,0.233594,
2010-01-16, 01:08:04,VALID,1004.83,VALID,0,VALID,95.1855,VALID,0.100563,VALID,23.1763,VALID,343,VALID,0.364453,
2010-01-16, 01:09:04,VALID,1004.83,VALID,0,VALID,95.1779,VALID,0.100563,VALID,23.1568,VALID,354,VALID,1.13008,
2010-01-16, 01:10:04,VALID,1004.86,VALID,0,VALID,95.2084,VALID,0,VALID,23.1179,VALID,335,VALID,0.685156,
2010-01-16, 01:11:04,VALID,1004.85,VALID,0,VALID,95.1779,VALID,0.100563,VALID,23.1374,VALID,298,VALID,0.378906,
2010-01-16, 01:12:04,VALID,1004.81,VALID,0,VALID,95.1779,VALID,0,VALID,23.1374,VALID,308,VALID,0.0460938,
2010-01-16, 01:13:04,VALID,1004.81,VALID,0.5,VALID,95.2008,VALID,0.100563,VALID,23.1374,VALID,2,VALID,0.102734,
2010-01-16, 01:14:04,VALID,1004.83,VALID,0,VALID,95.2008,VALID,0,VALID,23.1374,VALID,2,VALID,0,
2010-01-16, 01:15:04,VALID,1004.81,VALID,0,VALID,95.2008,VALID,0,VALID,23.1374,VALID,309,VALID,0.387891,
2010-01-16, 01:16:04,VALID,1004.76,VALID,0,VALID,95.1779,VALID,0,VALID,23.1374,VALID,294,VALID,0,
2010-01-16, 01:17:04,VALID,1004.77,VALID,0,VALID,95.1703,VALID,0,VALID,23.1568,VALID,312,VALID,0.242578,
2010-01-16, 01:18:04,VALID,1004.76,VALID,0,VALID,95.2161,VALID,0,VALID,23.1374,VALID,358,VALID,0.577734,
2010-01-16, 01:19:04,VALID,1004.74,VALID,0,VALID,95.1855,VALID,0,VALID,23.1374,VALID,352,VALID,0.316797,
2010-01-16, 01:20:04,VALID,1004.74,VALID,0,VALID,95.1779,VALID,0,VALID,23.1374,VALID,352,VALID,0.297656,
2010-01-16, 01:21:04,VALID,1004.72,VALID,0,VALID,95.1932,VALID,0,VALID,23.1568,VALID,352,VALID,0.0824219,
2010-01-16, 01:22:04,VALID,1004.71,VALID,0.5,VALID,95.2008,VALID,0,VALID,23.1568,VALID,352,VALID,0.198437,
2010-01-16, 01:23:04,VALID,1004.73,VALID,0,VALID,95.2008,VALID,0,VALID,23.1374,VALID,352,VALID,0.00859375,
2010-01-16, 01:24:04,VALID,1004.7,VALID,0,VALID,95.2313,VALID,0,VALID,23.1179,VALID,352,VALID,0.410156,
2010-01-16, 01:25:04,VALID,1004.72,VALID,0,VALID,95.2313,VALID,0,VALID,23.0984,VALID,352,VALID,0,
2010-01-16, 01:26:04,VALID,1004.72,VALID,0,VALID,95.2389,VALID,0,VALID,23.1002,VALID,352,VALID,0,
2010-01-16, 01:27:04,VALID,1004.74,VALID,0,VALID,95.2161,VALID,0,VALID,23.0772,VALID,352,VALID,0,
2010-01-16, 01:28:04,VALID,1004.74,VALID,0,VALID,95.2237,VALID,0,VALID,23.1179,VALID,352,VALID,0,
2010-01-16, 01:29:04,VALID,1004.74,VALID,0,VALID,95.2084,VALID,0,VALID,23.1374,VALID,352,VALID,0,
2010-01-16, 01:30:04,VALID,1004.74,VALID,0,VALID,95.2161,VALID,0,VALID,23.1374,VALID,338,VALID,0,
2010-01-16, 01:31:04,VALID,1004.75,VALID,0,VALID,95.2161,VALID,0,VALID,23.1374,VALID,281,VALID,0,
2010-01-16, 01:32:04,VALID,1004.76,VALID,0,VALID,95.2084,VALID,0,VALID,23.1374,VALID,281,VALID,0.298047,
2010-01-16, 01:33:04,VALID,1004.76,VALID,0,VALID,95.2084,VALID,0,VALID,23.1356,VALID,313,VALID,0,
2010-01-16, 01:34:04,VALID,1004.76,VALID,0,VALID,95.2161,VALID,0,VALID,23.1568,VALID,314,VALID,0.182812,
2010-01-16, 01:35:04,VALID,1004.75,VALID,0,VALID,95.2084,VALID,0,VALID,23.1374,VALID,346,VALID,0.603906,
2010-01-16, 01:36:04,VALID,1004.76,VALID,0,VALID,95.2389,VALID,0,VALID,23.1374,VALID,352,VALID,0.5875,
2010-01-16, 01:37:04,VALID,1004.7,VALID,0,VALID,95.2618,VALID,0,VALID,23.0772,VALID,345,VALID,1.30195,
2010-01-16, 01:38:04,VALID,1004.69,VALID,0,VALID,95.2313,VALID,0.100563,VALID,23.0984,VALID,351,VALID,0.442578,
2010-01-16, 01:39:04,VALID,1004.67,VALID,0,VALID,95.2542,VALID,0,VALID,23.0578,VALID,350,VALID,0.821484,
2010-01-16, 01:40:04,VALID,1004.67,VALID,0,VALID,95.2466,VALID,0,VALID,23.079,VALID,326,VALID,0.660937,
2010-01-16, 01:41:04,VALID,1004.64,VALID,0,VALID,95.2618,VALID,0,VALID,23.0595,VALID,350,VALID,0.0417969,
2010-01-16, 01:42:04,VALID,1004.63,VALID,0,VALID,95.2466,VALID,0.100563,VALID,23.079,VALID,340,VALID,0.184375,
2010-01-16, 01:43:04,VALID,1004.63,VALID,0,VALID,95.2389,VALID,0,VALID,23.0578,VALID,340,VALID,0.0335938,
2010-01-16, 01:44:04,VALID,1004.62,VALID,0,VALID,95.2542,VALID,0,VALID,23.0772,VALID,342,VALID,0.0976563,
2010-01-16, 01:45:04,VALID,1004.65,VALID,0,VALID,95.2389,VALID,0,VALID,23.079,VALID,352,VALID,0.105859,
2010-01-16, 01:46:04,VALID,1004.63,VALID,0,VALID,95.2389,VALID,0,VALID,23.0984,VALID,346,VALID,0.252344,
2010-01-16, 01:47:04,VALID,1004.61,VALID,0,VALID,95.2542,VALID,0,VALID,23.079,VALID,340,VALID,0.565625,
2010-01-16, 01:48:04,VALID,1004.59,VALID,0.5,VALID,95.2542,VALID,0.100563,VALID,23.0595,VALID,349,VALID,0.670703,
2010-01-16, 01:49:04,VALID,1004.56,VALID,0,VALID,95.2847,VALID,0,VALID,23.0206,VALID,344,VALID,0.720703,
2010-01-16, 01:50:04,VALID,1004.51,VALID,0,VALID,95.2695,VALID,0,VALID,23.0206,VALID,351,VALID,0.709766,
2010-01-16, 01:51:04,VALID,1004.5,VALID,0,VALID,95.2771,VALID,0,VALID,23.0012,VALID,352,VALID,0.505078,
2010-01-16, 01:52:04,VALID,1004.46,VALID,0,VALID,95.2542,VALID,0,VALID,22.9994,VALID,351,VALID,0.555859,
2010-01-16, 01:53:04,VALID,1004.47,VALID,0,VALID,95.2923,VALID,0,VALID,23.0206,VALID,337,VALID,0.496875,
2010-01-16, 01:54:04,VALID,1004.46,VALID,0,VALID,95.2847,VALID,0,VALID,22.98,VALID,345,VALID,0.659766,
2010-01-16, 01:55:04,VALID,1004.43,VALID,0,VALID,95.2542,VALID,0,VALID,23.0012,VALID,341,VALID,0.530859,
2010-01-16, 01:56:04,VALID,1004.41,VALID,0,VALID,95.2695,VALID,0,VALID,23.0206,VALID,345,VALID,0.647656,
2010-01-16, 01:57:04,VALID,1004.4,VALID,0,VALID,95.2771,VALID,0,VALID,23.0012,VALID,357,VALID,0.833594,
2010-01-16, 01:58:04,VALID,1004.39,VALID,0,VALID,95.2695,VALID,0,VALID,23.0224,VALID,348,VALID,0.684375,
2010-01-16, 01:59:04,VALID,1004.42,VALID,0,VALID,95.2695,VALID,0,VALID,22.9817,VALID,344,VALID,0.833984,
2010-01-16, 02:00:04,VALID,1004.43,VALID,0,VALID,95.2847,VALID,0,VALID,22.9605,VALID,354,VALID,0.705859,
2010-01-16, 02:01:04,VALID,1004.44,VALID,0,VALID,95.2847,VALID,0,VALID,22.98,VALID,355,VALID,0.360547,
2010-01-16, 02:02:04,VALID,1004.45,VALID,0,VALID,95.2695,VALID,0,VALID,23.0206,VALID,355,VALID,0.385156,
2010-01-16, 02:03:04,VALID,1004.45,VALID,0,VALID,95.2618,VALID,0,VALID,23.0189,VALID,359,VALID,0.5125,
2010-01-16, 02:04:04,VALID,1004.41,VALID,0,VALID,95.2771,VALID,0,VALID,23.0206,VALID,347,VALID,0.921094,
2010-01-16, 02:05:04,VALID,1004.43,VALID,0,VALID,95.2923,VALID,0,VALID,23.0012,VALID,350,VALID,0.813672,
2010-01-16, 02:06:04,VALID,1004.43,VALID,0,VALID,95.2923,VALID,0,VALID,23.0224,VALID,338,VALID,0.680078,
2010-01-16, 02:07:04,VALID,1004.42,VALID,0,VALID,95.2923,VALID,0,VALID,22.98,VALID,355,VALID,0.675781,
2010-01-16, 02:08:04,VALID,1004.44,VALID,0,VALID,95.3152,VALID,0,VALID,23.0012,VALID,357,VALID,0.5,
2010-01-16, 02:09:04,VALID,1004.42,VALID,0,VALID,95.3076,VALID,0,VALID,23.0206,VALID,355,VALID,0.389062,
2010-01-16, 02:10:04,VALID,1004.43,VALID,0,VALID,95.2923,VALID,0.100563,VALID,23.0012,VALID,342,VALID,0.579297,
2010-01-16, 02:11:04,VALID,1004.38,VALID,0,VALID,95.3,VALID,0,VALID,23.0012,VALID,349,VALID,0.539453,
2010-01-16, 02:12:04,VALID,1004.39,VALID,0,VALID,95.3076,VALID,0.100563,VALID,23.0012,VALID,4,VALID,0.775391,
2010-01-16, 02:13:04,VALID,1004.4,VALID,0,VALID,95.3152,VALID,0,VALID,22.98,VALID,5,VALID,0.571094,
2010-01-16, 02:14:04,VALID,1004.39,VALID,0,VALID,95.3152,VALID,0,VALID,22.9994,VALID,8,VALID,0.577734,
2010-01-16, 02:15:04,VALID,1004.41,VALID,0,VALID,95.3,VALID,0.100563,VALID,23.0206,VALID,358,VALID,0.125781,
2010-01-16, 02:16:04,VALID,1004.39,VALID,0,VALID,95.3,VALID,0.100563,VALID,23.0206,VALID,345,VALID,0.298828,
2010-01-16, 02:17:04,VALID,1004.38,VALID,0,VALID,95.3,VALID,0.100563,VALID,23.0012,VALID,343,VALID,0.458594,
2010-01-16, 02:18:04,VALID,1004.41,VALID,0,VALID,95.3076,VALID,0,VALID,22.9817,VALID,356,VALID,0.421094,
2010-01-16, 02:19:04,VALID,1004.36,VALID,0.5,VALID,95.3152,VALID,0.100563,VALID,22.98,VALID,352,VALID,1.08984,
2010-01-16, 02:20:04,VALID,1004.38,VALID,0,VALID,95.3229,VALID,0,VALID,22.98,VALID,360,VALID,0.379687,
2010-01-16, 02:21:04,VALID,1004.36,VALID,0,VALID,95.3305,VALID,0.100563,VALID,23.0012,VALID,340,VALID,0.746875,
2010-01-16, 02:22:04,VALID,1004.36,VALID,0,VALID,95.3305,VALID,0,VALID,22.9817,VALID,342,VALID,0.471094,
2010-01-16, 02:23:04,VALID,1004.37,VALID,0,VALID,95.3076,VALID,0.100563,VALID,22.9605,VALID,343,VALID,0.404297,
2010-01-16, 02:24:04,VALID,1004.38,VALID,0,VALID,95.3381,VALID,0,VALID,22.941,VALID,349,VALID,0.583203,
2010-01-16, 02:25:04,VALID,1004.37,VALID,0,VALID,95.3457,VALID,0.100563,VALID,22.9605,VALID,349,VALID,0.178125,
2010-01-16, 02:26:04,VALID,1004.34,VALID,0,VALID,95.3152,VALID,0,VALID,23.0206,VALID,349,VALID,0.394141,
2010-01-16, 02:27:04,VALID,1004.32,VALID,0,VALID,95.3152,VALID,0.100563,VALID,23.0206,VALID,349,VALID,0.478125,
2010-01-16, 02:28:04,VALID,1004.34,VALID,0,VALID,95.3381,VALID,0,VALID,22.98,VALID,349,VALID,0.322656,
2010-01-16, 02:29:04,VALID,1004.34,VALID,0,VALID,95.3457,VALID,0,VALID,23.0012,VALID,349,VALID,0.0078125,
2010-01-16, 02:30:04,VALID,1004.33,VALID,0,VALID,95.3457,VALID,0,VALID,23.0206,VALID,349,VALID,0,
2010-01-16, 02:31:04,VALID,1004.34,VALID,0,VALID,95.3152,VALID,0,VALID,23.0613,VALID,349,VALID,0,
2010-01-16, 02:32:04,VALID,1004.32,VALID,0,VALID,95.3305,VALID,0,VALID,23.0401,VALID,348,VALID,0.397266,
2010-01-16, 02:33:04,VALID,1004.33,VALID,0,VALID,95.3381,VALID,0,VALID,23.0206,VALID,351,VALID,0.842188,
2010-01-16, 02:34:04,VALID,1004.32,VALID,0,VALID,95.3381,VALID,0,VALID,23.0206,VALID,352,VALID,0.507813,
2010-01-16, 02:35:04,VALID,1004.3,VALID,0,VALID,95.3457,VALID,0,VALID,23.0613,VALID,352,VALID,0.359375,
2010-01-16, 02:36:04,VALID,1004.29,VALID,0,VALID,95.3381,VALID,0,VALID,23.0401,VALID,354,VALID,0.463672,
2010-01-16, 02:37:04,VALID,1004.29,VALID,0,VALID,95.3305,VALID,0,VALID,23.0613,VALID,351,VALID,0,
2010-01-16, 02:38:04,VALID,1004.28,VALID,0.5,VALID,95.3305,VALID,0,VALID,23.079,VALID,350,VALID,0,
2010-01-16, 02:39:04,VALID,1004.29,VALID,0,VALID,95.3457,VALID,0,VALID,23.079,VALID,350,VALID,0,
2010-01-16, 02:40:04,VALID,1004.27,VALID,0,VALID,95.3534,VALID,0,VALID,23.1197,VALID,350,VALID,0,
2010-01-16, 02:41:04,VALID,1004.23,VALID,0,VALID,95.3229,VALID,0,VALID,23.1197,VALID,350,VALID,0,
2010-01-16, 02:42:04,VALID,1004.25,VALID,0,VALID,95.3534,VALID,0,VALID,23.0984,VALID,350,VALID,0,
2010-01-16, 02:43:04,VALID,1004.23,VALID,0,VALID,95.3457,VALID,0,VALID,23.1179,VALID,350,VALID,0,
2010-01-16, 02:44:04,VALID,1004.2,VALID,0,VALID,95.3381,VALID,0,VALID,23.1197,VALID,350,VALID,0,
2010-01-16, 02:45:04,VALID,1004.19,VALID,0,VALID,95.3305,VALID,0,VALID,23.1391,VALID,350,VALID,0,
2010-01-16, 02:46:04,VALID,1004.18,VALID,0,VALID,95.3381,VALID,0,VALID,23.1586,VALID,353,VALID,0.472656,
2010-01-16, 02:47:04,VALID,1004.18,VALID,0,VALID,95.3152,VALID,0,VALID,23.178,VALID,357,VALID,0.414063,
2010-01-16, 02:48:04,VALID,1004.15,VALID,0,VALID,95.3229,VALID,0,VALID,23.1586,VALID,9,VALID,0.545313,
2010-01-16, 02:49:04,VALID,1004.16,VALID,0,VALID,95.3381,VALID,0,VALID,23.1586,VALID,9,VALID,0,
2010-01-16, 02:50:04,VALID,1004.13,VALID,0,VALID,95.3534,VALID,0,VALID,23.1568,VALID,9,VALID,0.142188,
2010-01-16, 02:51:04,VALID,1004.14,VALID,0,VALID,95.3534,VALID,0,VALID,23.1586,VALID,13,VALID,0.0890625,
2010-01-16, 02:52:04,VALID,1004.1,VALID,0,VALID,95.3686,VALID,0,VALID,23.0772,VALID,38,VALID,0.00078125,
2010-01-16, 02:53:04,VALID,1004.12,VALID,0,VALID,95.361,VALID,0,VALID,23.1002,VALID,74,VALID,0.335156,
2010-01-16, 02:54:04,VALID,1004.11,VALID,0,VALID,95.361,VALID,0,VALID,23.1002,VALID,74,VALID,0,
2010-01-16, 02:55:05,VALID,1004.11,VALID,0.5,VALID,95.3534,VALID,0,VALID,23.1197,VALID,74,VALID,0.387891,
2010-01-16, 02:56:04,VALID,1004.08,VALID,0,VALID,95.3381,VALID,0,VALID,23.1179,VALID,74,VALID,0.0457031,
2010-01-16, 02:57:04,VALID,1004.08,VALID,0,VALID,95.361,VALID,0,VALID,23.1391,VALID,74,VALID,0,
2010-01-16, 02:58:05,VALID,1004.05,VALID,0,VALID,95.361,VALID,0,VALID,23.1391,VALID,74,VALID,0,
2010-01-16, 02:59:05,VALID,1004.01,VALID,0,VALID,95.3457,VALID,0.100563,VALID,23.1568,VALID,74,VALID,0,
2010-01-16, 03:00:05,VALID,1004.02,VALID,0,VALID,95.361,VALID,0.100563,VALID,23.1356,VALID,74,VALID,0,
2010-01-16, 03:01:05,VALID,1003.98,VALID,0,VALID,95.3686,VALID,0.100563,VALID,23.1586,VALID,74,VALID,0,
2010-01-16, 03:02:05,VALID,1003.97,VALID,0,VALID,95.3457,VALID,0.100563,VALID,23.1374,VALID,74,VALID,0,
2010-01-16, 03:03:05,VALID,1003.95,VALID,0,VALID,95.3381,VALID,0,VALID,23.1374,VALID,74,VALID,0,
2010-01-16, 03:04:05,VALID,1003.93,VALID,0,VALID,95.3686,VALID,0.100563,VALID,23.1356,VALID,74,VALID,0,
2010-01-16, 03:05:05,VALID,1003.94,VALID,0,VALID,95.3534,VALID,0,VALID,23.1374,VALID,74,VALID,0,
2010-01-16, 03:06:05,VALID,1003.9,VALID,0,VALID,95.3534,VALID,0.100563,VALID,23.1374,VALID,74,VALID,0,
2010-01-16, 03:07:05,VALID,1003.93,VALID,0,VALID,95.3457,VALID,0,VALID,23.1374,VALID,74,VALID,0,
2010-01-16, 03:08:05,VALID,1003.94,VALID,0,VALID,95.3763,VALID,0,VALID,23.1568,VALID,74,VALID,0,
2010-01-16, 03:09:05,VALID,1003.9,VALID,0,VALID,95.3534,VALID,0.100563,VALID,23.1356,VALID,74,VALID,0,
2010-01-16, 03:10:05,VALID,1003.88,VALID,0,VALID,95.361,VALID,0,VALID,23.1162,VALID,74,VALID,0,
2010-01-16, 03:11:05,VALID,1003.89,VALID,0,VALID,95.3686,VALID,0,VALID,23.1374,VALID,74,VALID,0,
2010-01-16, 03:12:05,VALID,1003.88,VALID,0,VALID,95.3381,VALID,0,VALID,23.1162,VALID,74,VALID,0,
2010-01-16, 03:13:05,VALID,1003.84,VALID,0,VALID,95.3763,VALID,0.100563,VALID,23.1356,VALID,74,VALID,0,
2010-01-16, 03:14:05,VALID,1003.84,VALID,0,VALID,95.3534,VALID,0.100563,VALID,23.1551,VALID,74,VALID,0,
2010-01-16, 03:15:05,VALID,1003.85,VALID,0,VALID,95.3457,VALID,0.100563,VALID,23.1374,VALID,74,VALID,0,
2010-01-16, 03:16:05,VALID,1003.82,VALID,0,VALID,95.3686,VALID,0.100563,VALID,23.1568,VALID,74,VALID,0,
2010-01-16, 03:17:05,VALID,1003.81,VALID,0,VALID,95.3457,VALID,0.201126,VALID,23.1339,VALID,74,VALID,0,
2010-01-16, 03:18:05,VALID,1003.82,VALID,0,VALID,95.3534,VALID,0.100563,VALID,23.1551,VALID,74,VALID,0,
2010-01-16, 03:19:05,VALID,1003.81,VALID,0,VALID,95.3381,VALID,0.100563,VALID,23.1551,VALID,74,VALID,0,
2010-01-16, 03:20:05,VALID,1003.8,VALID,0.5,VALID,95.361,VALID,0.100563,VALID,23.1745,VALID,74,VALID,0,
2010-01-16, 03:21:05,VALID,1003.81,VALID,0,VALID,95.3534,VALID,0.100563,VALID,23.194,VALID,74,VALID,0,
2010-01-16, 03:22:05,VALID,1003.79,VALID,0,VALID,95.3457,VALID,0.100563,VALID,23.2134,VALID,74,VALID,0,
2010-01-16, 03:23:05,VALID,1003.78,VALID,0,VALID,95.3457,VALID,0.100563,VALID,23.2134,VALID,74,VALID,0,
2010-01-16, 03:24:05,VALID,1003.77,VALID,0,VALID,95.3457,VALID,0.100563,VALID,23.2134,VALID,74,VALID,0,
2010-01-16, 03:25:05,VALID,1003.75,VALID,0,VALID,95.3381,VALID,0.100563,VALID,23.2736,VALID,74,VALID,0,
2010-01-16, 03:26:05,VALID,1003.72,VALID,0,VALID,95.361,VALID,0.100563,VALID,23.2524,VALID,74,VALID,0,
2010-01-16, 03:27:05,VALID,1003.73,VALID,0,VALID,95.3381,VALID,0.100563,VALID,23.2718,VALID,74,VALID,0,
2010-01-16, 03:28:05,VALID,1003.7,VALID,0,VALID,95.3381,VALID,0.100563,VALID,23.2736,VALID,74,VALID,0,
2010-01-16, 03:29:05,VALID,1003.71,VALID,0,VALID,95.3305,VALID,0.100563,VALID,23.2718,VALID,74,VALID,0,
2010-01-16, 03:30:05,VALID,1003.7,VALID,0,VALID,95.3381,VALID,0.100563,VALID,23.2524,VALID,74,VALID,0,
2010-01-16, 03:31:05,VALID,1003.67,VALID,0,VALID,95.3457,VALID,0.100563,VALID,23.2718,VALID,74,VALID,0,
2010-01-16, 03:32:05,VALID,1003.69,VALID,0,VALID,95.3457,VALID,0.100563,VALID,23.2931,VALID,74,VALID,0,
2010-01-16, 03:33:05,VALID,1003.66,VALID,0,VALID,95.3381,VALID,0.100563,VALID,23.3125,VALID,74,VALID,0,
2010-01-16, 03:34:05,VALID,1003.68,VALID,0,VALID,95.3457,VALID,0.100563,VALID,23.2913,VALID,74,VALID,0,
2010-01-16, 03:35:05,VALID,1003.67,VALID,0,VALID,95.3534,VALID,0.100563,VALID,23.2931,VALID,74,VALID,0,
2010-01-16, 03:36:05,VALID,1003.66,VALID,0,VALID,95.3534,VALID,0,VALID,23.2931,VALID,74,VALID,0,
2010-01-16, 03:37:05,VALID,1003.62,VALID,0,VALID,95.3534,VALID,0.100563,VALID,23.2524,VALID,74,VALID,0,
2010-01-16, 03:38:05,VALID,1003.63,VALID,0,VALID,95.3457,VALID,0.100563,VALID,23.2524,VALID,74,VALID,0,
2010-01-16, 03:39:05,VALID,1003.62,VALID,0,VALID,95.3839,VALID,0.100563,VALID,23.2524,VALID,74,VALID,0,
2010-01-16, 03:40:05,VALID,1003.58,VALID,0,VALID,95.361,VALID,0.100563,VALID,23.2718,VALID,74,VALID,0,
2010-01-16, 03:41:05,VALID,1003.6,VALID,0,VALID,95.361,VALID,0.100563,VALID,23.2931,VALID,74,VALID,0,
2010-01-16, 03:42:05,VALID,1003.56,VALID,0,VALID,95.3534,VALID,0.100563,VALID,23.2718,VALID,74,VALID,0,
2010-01-16, 03:43:05,VALID,1003.56,VALID,0,VALID,95.3381,VALID,0,VALID,23.2931,VALID,74,VALID,0,
2010-01-16, 03:44:05,VALID,1003.53,VALID,0,VALID,95.3457,VALID,0.100563,VALID,23.2913,VALID,74,VALID,0,
2010-01-16, 03:45:05,VALID,1003.57,VALID,0,VALID,95.3534,VALID,0.100563,VALID,23.3107,VALID,74,VALID,0,